Pagina principale
METAR-TAF:

METAR-TAF

Aeroporti :

Foggia, Italia

Aeroporto di Foggia

latitudine: 41-25-58N, longitudine: 015-32-06E, altezza: 81 m

Osservazione

Il bollettino è stato emesso 31 minuti fa, alle 11:50 UTC
Vento 3 kt da direzioni variabili
Temperature 14°C
Umidità 55%
Pressione 1012 hPa
Visibilità 10 km o più
nessuna nube inferiore a 1500 m e nessun cumulonembo

METAR: LIBF 191150Z VRB03KT CAVOK 14/05 Q1012

Ora: 13:21 (12:21 UTC)


TAF: mancante

Osservazioni e previsioni meteorologiche di più di 4000 aeroporti (messaggi METAR e TAF).

Le stazioni disponibili sono rappresentate dai dischi gialli e rossi sulla carta.

Puntare il mouse per vedere il nome della stazione.

Clicca sopra per visualizzare le osservazioni e previsioni meteorologiche.

Per cambiare la mappa : fare clic sui pulsanti verdi con una croce nera per ingrandire, il pulsante verde con un trattino per diminuire, o sulla freccia verde per le mappe adiacenti.


METAR-TAF: